Location: Newark
(13.6797°N, 8.5297°E)
Time: 15:00:07
(UTC+00:00)

Courier 1B Rocket - Pass Details

Date: 21 January 2020
Orbit: 920 x 1202 km, 28.2° (Epoch: 22 February)

Event Time Altitude Azimuth Distance (km) Brightness Sun altitude
Rises 07:17:50 0° 203° (SSW) 4,073 8.3 17.9°
Reaches altitude 10° 07:22:30 10° 179° (S) 3,077 8.1 18.9°
Maximum altitude 07:26:04 14° 150° (SSE) 2,765 8.5 19.7°
Drops below altitude 10° 07:29:32 10° 122° (ESE) 3,000 9.9 20.5°
Sets 07:33:57 0° 98° (E) 3,897 9.4 21.4°
